Cancun International Airp, Mexico

5:59 AM EST on August 28, 2016 (GMT -0500)
Cancun International

Weather History for MMUN - November, 2012

Change the Weather History Date:

Sunday, November 18, 2012

  Actual Average Record
Temperature  
Mean Temperature 71 °F -  
Max Temperature 78 °F 82 °F 87 °F (2003)
Min Temperature 64 °F 66 °F 57 °F (1999)
Cooling Degree Days 6    
Growing Degree Days 21 (Base 50)    
Moisture  
Dew Point 66 °F    
Average Humidity 85    
Maximum Humidity 100    
Minimum Humidity 61    
Precipitation  
Precipitation 0.00 in - - ()
Sea Level Pressure  
Sea Level Pressure 30.03 in    
Wind  
Wind Speed 6 mph ()    
Max Wind Speed 14 mph    
Max Gust Speed -    
Visibility 7.0 miles    
Events      
Averages and records for this station are not official NWS values.
T = Trace of Precipitation, MM = Missing Value Source: Averaged Metar Reports

Daily Weather History Graph

Daily Weather History Graph

Search for Another Location

Airport or City:

Trip Planner

Search our weather history database for the weather conditions in past years. The results will help you decide how hot, cold, wet, or windy it might be!

Date:

Astronomy

Nov. 18, 2012 Rise Set
Actual Time 6:00 AM CST 5:05 PM CST
Civil Twilight 5:36 AM CST 5:28 PM CST
Nautical Twilight 5:09 AM CST 5:55 PM CST
Astronomical Twilight 4:42 AM CST 6:22 PM CST
Moon 10:34 AM CST (11/18) 10:13 PM CST (11/18)
Length of Visible Light 11h 52m
Length of Day
11h 05m
Waxing Crescent, 30% of the Moon is Illuminated
Nov 18
Waxing Crescent
Nov 20
First Quarter
Nov 28
Full
Dec 6
Last Quarter
Dec 13
New

Hourly Weather History & Observations

Time (CST) Temp. Dew Point Humidity Pressure Visibility Wind Dir Wind Speed Gust Speed Precip Events Conditions
12:42 AM 64.4 °F 64.4 °F 100% 30.02 in 7.0 mi WNW 4.6 mph - N/A   Clear
1:47 AM 64.4 °F 64.4 °F 100% 30.01 in 7.0 mi WNW 6.9 mph - N/A   Clear
2:50 AM 66.2 °F 64.4 °F 94% 30.00 in 7.0 mi NW 5.8 mph - N/A   Scattered Clouds
3:53 AM 66.2 °F 64.4 °F 94% 30.01 in 7.0 mi NW 5.8 mph - N/A   Scattered Clouds
4:49 AM 68.0 °F 66.2 °F 94% 30.01 in 7.0 mi NW 6.9 mph - N/A   Scattered Clouds
5:51 AM 68.0 °F 68.0 °F 100% 30.02 in 7.0 mi NNW 11.5 mph - N/A   Scattered Clouds
6:45 AM 68.0 °F 66.2 °F 94% 30.04 in 7.0 mi NNW 9.2 mph - N/A   Scattered Clouds
7:47 AM 69.8 °F 68.0 °F 94% 30.05 in 7.0 mi NW 10.4 mph - N/A   Mostly Cloudy
8:43 AM 71.6 °F 66.2 °F 83% 30.06 in 7.0 mi NW 10.4 mph - N/A   Mostly Cloudy
9:41 AM 77.0 °F 66.2 °F 69% 30.05 in 7.0 mi North 8.1 mph - N/A   Mostly Cloudy
10:44 AM 78.8 °F 66.2 °F 65% 30.04 in 7.0 mi NNW 11.5 mph - N/A   Mostly Cloudy
11:49 AM 77.0 °F 68.0 °F 74% 30.03 in 7.0 mi North 13.8 mph - N/A   Mostly Cloudy
12:43 PM 78.8 °F 64.4 °F 61% 29.99 in 7.0 mi North 8.1 mph - N/A   Mostly Cloudy
1:47 PM 78.8 °F 64.4 °F 61% 29.98 in 7.0 mi North 6.9 mph - N/A   Overcast
2:44 PM 77.0 °F 66.2 °F 69% 30.02 in 7.0 mi NNW 4.6 mph - N/A   Overcast
3:52 PM 75.2 °F 66.2 °F 73% 30.00 in 7.0 mi NW 5.8 mph - N/A   Mostly Cloudy
4:45 PM 71.6 °F 66.2 °F 83% 30.01 in 7.0 mi North 8.1 mph - N/A   Overcast
5:51 PM 69.8 °F 66.2 °F 88% 30.02 in 7.0 mi NNW 10.4 mph - N/A   Overcast
6:45 PM 69.8 °F 66.2 °F 88% 30.04 in 7.0 mi NW 8.1 mph - N/A   Overcast
7:40 PM 69.8 °F 66.2 °F 88% 30.05 in 7.0 mi NW 4.6 mph - N/A   Overcast
8:53 PM 69.8 °F 66.2 °F 88% 30.06 in 7.0 mi NW 5.8 mph - N/A   Overcast
9:46 PM 69.8 °F 66.2 °F 88% 30.05 in 7.0 mi NW 3.5 mph - N/A   Mostly Cloudy
10:48 PM 68.0 °F 66.2 °F 94% 30.05 in 7.0 mi WNW 3.5 mph - N/A   Scattered Clouds
11:40 PM 68.0 °F 64.4 °F 88% 30.04 in 7.0 mi WNW 2.3 mph - N/A   Partly Cloudy